This is the latest recevied weather packets stored in our database for station/object DL6DJ-15. If no packets are shown the sender has not sent any weather packets the latest 10 day(s).
| Time | Temp. | Humidity | Pressure | Rain* | Wind** | Luminosity | Snow |
|---|---|---|---|---|---|---|---|
| 1777630693 | 22.22° C | 21% | 1029.7 hPa | - | - | - | - |
| 1777630392 | 23.33° C | 21% | 1029.5 hPa | - | - | - | - |
| 1777630092 | 24.44° C | 18% | 1029.5 hPa | - | - | - | - |
| 1777629791 | 23.33° C | 19% | 1029.7 hPa | - | - | - | - |
| 1777629491 | 24.44° C | 18% | 1029.7 hPa | - | - | - | - |
| 1777629194 | 23.33° C | 21% | 1029.7 hPa | - | - | - | - |
| 1777628890 | 22.78° C | 18% | 1029.8 hPa | - | - | - | - |
| 1777628590 | 23.89° C | 19% | 1029.8 hPa | - | - | - | - |
| 1777628289 | 23.89° C | 21% | 1029.7 hPa | - | - | - | - |
| 1777627989 | 23.89° C | 18% | 1029.8 hPa | - | - | - | - |
| 1777627688 | 23.89° C | 18% | 1029.8 hPa | - | - | - | - |
| 1777627388 | 25° C | 17% | 1029.9 hPa | - | - | - | - |
| 1777627088 | 25° C | 17% | 1030 hPa | - | - | - | - |
| 1777626788 | 24.44° C | 18% | 1029.9 hPa | - | - | - | - |
| 1777626487 | 23.33° C | 21% | 1029.9 hPa | - | - | - | - |
| 1777626187 | 24.44° C | 18% | 1030 hPa | - | - | - | - |
| 1777625887 | 23.33° C | 19% | 1030.1 hPa | - | - | - | - |
| 1777625586 | 22.78° C | 19% | 1030 hPa | - | - | - | - |
| 1777625286 | 23.33° C | 20% | 1029.9 hPa | - | - | - | - |
| 1777624986 | 23.33° C | 18% | 1029.9 hPa | - | - | - | - |
| 1777624685 | 23.33° C | 18% | 1029.9 hPa | - | - | - | - |
| 1777624084 | 22.78° C | 19% | 1030 hPa | - | - | - | - |
| 1777623784 | 22.78° C | 19% | 1030 hPa | - | - | - | - |
| 1777623484 | 22.78° C | 18% | 1029.9 hPa | - | - | - | - |
| 1777623183 | 23.33° C | 19% | 1030.1 hPa | - | - | - | - |
* Rain since midnight (hover to see other rain measurements)
** Current wind speed in m/s (hover to see current wind gust speed)